Temp_Advection
nan nan nan nan nan nan nan nan nan nan nan nan nan nan nan nan nan nan nan nan nan nan nan nan nan nan nan nan nan nan nan nan nan nan nan nan nan nan nan nan nan nan nan
nan 0 0 0 0 0 0 0 0 0 0 0 0 -0 -0 0 0 0 0 0 0 0 0 0 0 0 -0 -0 -0 -0 0 0 0 0 0 0 0 0 0 0 0 -0 nan
nan -0 -0 0 0 0 0 0 0 0 0 0 0 0 0 0 0 0 0 0 0 0 0 0 0 0 -0 -0 -0 -0 0 0 0 0 0 0 0 0 0 0 0 0 nan
nan -0 -0 -0 0 0 0 0 0 0 0 0 0 0 0 0 0 0 0 0 0 0 0 0 0 0 -0 0 0 0 0 0 0 0 0 0 0 0 0 0 0 0 nan
nan -0 0 0 0 0 0 0 0 0 0 0 0 0 0 0 0 0 0 0 0 0 0 0 0 0 0 0 0 0 0 0 0 0 -0 0 0 0 0 0 0 0 nan
nan 0 0 0 0 0 0 0 0 0 0 0 0 0 0 0 0 0 0 0 0 0 0 0 0 0 0 0 0 0 0 0 0 0 0 0 0 0 0 0 0 0 nan
nan 0 0 0 1 0 1 1 0 0 0 0 0 0 0 0 0 0 0 0 0 0 0 0 0 0 0 -0 0 0 0 0 0 -0 0 0 0 0 0 0 0 0 nan
nan 0 0 0 1 1 1 1 1 0 0 0 0 0 0 0 0 0 0 0 0 0 0 0 0 0 0 -0 0 0 -0 -0 -0 -0 0 0 0 0 0 0 0 0 nan
nan 0 1 1 1 1 1 1 1 1 0 0 0 0 0 0 0 0 0 0 0 0 0 0 -0 -0 0 0 0 0 -0 -0 -0 -0 -0 0 0 0 0 0 0 0 nan
nan 1 1 1 1 1 1 1 1 0 0 1 0 0 0 0 0 0 0 0 0 0 0 -0 -0 0 0 0 0 -0 0 0 0 0 0 0 0 0 0 1 0 0 nan
nan 0 0 1 1 1 0 0 -0 -0 0 0 0 0 0 -0 -0 0 0 0 0 0 0 0 0 1 0 0 0 0 0 0 0 0 0 1 0 1 0 0 0 0 nan
nan 1 0 0 0 0 0 0 -0 -0 0 0 0 0 0 0 0 0 0 0 0 0 0 0 0 0 0 0 0 1 0 0 0 0 0 0 0 -0 0 0 0 0 nan
nan 0 1 0 0 0 1 0 0 0 1 0 0 0 0 0 0 0 0 0 0 0 0 0 0 0 1 0 0 -0 0 0 0 0 0 -0 1 0 0 0 0 0 nan
nan 0 0 0 0 0 0 0 1 0 0 0 0 0 0 0 0 0 -0 0 0 1 0 0 0 1 1 1 0 1 0 0 0 0 1 0 0 1 1 0 0 0 nan
nan 0 0 0 -0 0 0 1 0 -0 0 1 1 1 1 0 -0 0 0 0 1 1 0 0 0 1 0 1 1 1 0 0 0 0 0 1 0 0 0 0 0 0 nan
nan 0 0 0 0 -0 0 0 0 0 1 1 1 0 0 -0 0 0 0 0 1 0 0 -0 1 0 0 0 0 0 0 1 1 0 0 1 1 0 0 0 0 0 nan
nan -0 1 1 0 0 0 0 1 0 1 0 -0 -0 -0 -0 0 0 0 1 0 -0 -0 1 0 1 0 0 0 0 1 1 1 1 1 0 1 1 1 1 1 0 nan
nan -1 0 0 0 0 -0 1 0 0 0 0 0 -0 -0 0 0 0 0 0 -0 0 1 0 0 1 1 1 1 1 1 1 1 1 1 1 -0 0 1 1 1 1 nan
nan -1 -1 0 1 -0 0 0 0 -0 1 0 0 -0 0 0 0 0 0 -0 0 0 0 -0 0 0 0 1 2 2 2 2 1 1 0 1 1 0 -0 0 1 1 nan
nan -1 -1 -0 0 -0 0 1 0 0 1 0 0 -0 -0 -0 0 0 -0 0 0 0 -0 0 0 0 0 0 0 2 1 2 2 1 1 0 1 1 0 0 -0 -0 nan
nan -1 -0 -1 0 1 1 1 1 1 0 0 0 -0 0 -0 0 -0 0 0 -0 -1 0 1 0 1 1 1 -1 -1 1 1 1 1 1 0 -0 1 -0 -0 0 -0 nan
nan -2 -2 -1 -0 -0 0 1 1 0 0 0 0 0 0 0 0 0 0 0 -0 0 0 0 0 -0 0 1 0 -2 -0 1 1 1 1 1 1 1 0 0 0 -0 nan
nan -1 -2 -2 -1 -0 -0 -0 -0 1 1 1 -0 -0 -0 0 1 0 0 0 -0 1 -0 -0 0 -0 -1 -0 -0 -2 -2 -1 0 1 1 1 1 0 1 0 0 -0 nan
nan -1 -1 -1 -1 -1 -1 -0 0 1 1 0 -1 -0 0 1 0 0 0 -0 0 0 0 0 1 1 0 -2 -2 -1 -2 -3 -3 -1 1 1 1 0 0 0 0 0 nan
nan -1 -1 -1 -1 -1 -1 -0 -1 -0 -0 -0 -0 1 1 1 1 0 0 0 1 0 0 1 1 1 1 -1 -1 -1 -1 -0 -1 -4 -2 0 0 0 0 0 0 0 nan
nan nan nan nan nan nan nan nan nan nan nan nan nan nan nan nan nan nan nan nan nan nan nan nan nan nan nan nan nan nan nan nan nan nan nan nan nan nan nan nan nan nan nan
Wind_Speed
16 16 16 14 16 16 14 14 13 11 11 10 10 10 10 10 10 9 8 8 9 11 12 12 12 13 14 11 11 13 15 15 17 14 12 13 12 13 19 19 20 21 21
13 17 16 15 16 16 15 15 14 13 12 11 10 10 10 10 9 9 10 10 10 12 13 13 13 13 14 12 12 12 13 13 13 13 13 13 14 18 21 20 20 21 22
14 13 15 16 16 16 16 17 16 15 13 10 10 9 10 10 10 10 11 11 11 12 12 13 13 13 13 12 12 11 12 13 12 13 13 17 18 20 21 20 20 22 22
13 12 13 14 16 17 18 18 17 16 15 12 10 9 10 11 11 11 12 12 12 12 12 13 14 14 13 11 12 12 13 14 14 14 15 18 21 21 21 22 22 23 23
12 10 11 14 17 18 19 20 19 18 16 12 11 10 9 10 12 13 12 12 12 12 12 14 14 15 14 11 11 11 12 13 14 16 18 20 22 21 21 22 22 24 26
7 8 13 15 17 18 21 21 20 19 16 13 11 11 11 11 12 12 13 13 14 13 13 14 14 15 14 12 11 12 14 15 16 18 19 21 21 22 23 23 24 26 26
8 12 16 16 18 19 21 21 21 19 17 14 13 12 12 13 13 12 12 13 13 12 13 15 15 16 16 15 14 15 16 17 18 19 21 21 20 23 24 24 25 26 26
11 10 16 17 20 20 21 22 21 20 18 16 15 15 14 15 14 14 13 14 13 13 14 15 16 17 19 19 18 18 20 20 19 19 22 23 22 25 26 28 28 28 28
13 15 19 20 21 21 23 21 21 20 19 18 17 16 16 16 16 15 15 15 15 15 14 15 15 17 19 22 22 21 20 20 19 21 23 25 26 27 29 30 29 28 27
15 16 19 20 21 23 21 21 21 20 19 19 19 17 17 17 17 16 16 16 17 18 17 16 15 16 19 26 27 23 22 19 18 20 24 27 26 30 32 32 30 28 28
18 17 17 17 17 23 24 22 21 20 18 18 19 18 19 19 19 18 18 17 16 17 18 18 17 18 22 27 32 27 21 20 18 20 25 29 30 37 38 34 33 32 30
22 21 18 16 16 18 22 25 23 21 18 21 20 21 21 21 21 20 19 19 18 18 18 17 19 22 25 27 30 26 22 18 18 21 22 32 35 48 37 36 30 23 23
17 21 20 19 17 16 21 24 24 22 20 20 22 23 22 21 21 21 22 21 20 19 20 19 22 26 28 30 29 28 23 19 20 20 18 34 42 28 27 22 22 23 23
13 12 13 19 20 18 19 21 22 20 21 23 22 23 23 22 22 22 22 22 23 22 23 25 27 29 31 33 29 30 24 21 24 23 32 39 38 33 35 32 32 27 25
14 15 17 12 19 21 22 21 22 21 19 21 21 21 22 23 21 20 21 23 25 25 26 25 27 26 35 34 28 29 27 30 32 28 48 50 48 41 36 33 32 28 23
5 14 20 19 17 22 26 26 27 23 19 19 18 18 19 19 15 17 19 21 23 27 27 30 33 32 37 32 31 32 35 36 38 37 40 38 34 30 30 28 27 23 20
9 5 20 18 17 22 24 26 25 22 21 23 22 21 19 17 15 18 19 19 21 30 29 38 34 41 36 36 34 35 38 42 39 39 38 36 33 27 25 22 21 19 16
13 5 3 12 20 24 26 27 26 23 23 25 23 23 19 17 16 16 15 17 23 31 39 45 48 47 44 45 44 46 45 37 37 34 35 29 28 24 23 19 18 18 17
19 13 7 2 13 30 24 29 27 26 25 25 24 22 20 19 18 17 16 17 26 30 38 37 37 38 45 50 53 48 44 39 34 29 25 25 22 22 25 25 24 24 24
21 17 13 8 3 18 22 30 26 27 26 25 20 21 20 20 18 19 22 22 34 38 47 43 44 45 43 46 43 41 37 35 32 27 24 24 21 20 23 25 24 23 23
23 20 18 14 10 5 19 20 33 29 28 24 19 21 22 21 19 20 28 32 37 43 41 43 44 44 46 46 46 41 36 32 29 26 25 22 20 21 20 19 20 23 25
31 25 21 18 13 5 3 7 19 24 26 24 22 25 27 23 21 20 22 41 39 36 40 42 44 48 48 49 49 44 35 31 29 27 23 21 21 20 18 17 17 19 20
35 33 27 22 17 9 3 2 9 21 25 28 25 27 28 30 27 25 24 41 47 44 42 42 44 46 54 52 52 35 26 13 31 26 23 20 19 18 19 19 17 16 15
37 33 29 25 20 15 10 5 2 11 19 25 31 26 32 31 30 29 29 33 32 46 46 43 45 48 53 52 42 38 25 35 22 19 24 22 19 16 15 16 16 16 14
34 34 32 28 23 17 13 7 7 3 7 19 34 33 33 33 32 32 32 37 39 42 42 38 55 54 55 51 43 39 28 33 32 38 34 28 25 21 19 19 19 18 17
33 31 31 30 26 22 16 12 9 5 9 11 28 33 33 34 34 37 35 38 45 45 43 48 54 50 47 43 43 41 39 40 39 38 36 31 28 24 23 22 21 20 19
Wind_Direction
166 167 176 179 186 191 195 191 185 179 177 177 179 183 184 183 182 182 183 178 175 173 177 180 179 177 177 173 170 172 174 174 177 184 176 176 171 164 157 153 148 148 143
171 169 175 181 188 191 196 193 184 175 176 179 184 192 195 194 191 189 187 182 180 182 183 183 184 186 187 187 182 180 185 190 193 189 179 180 176 168 162 157 154 149 145
179 174 179 184 190 194 198 195 186 178 176 183 192 202 204 204 200 195 190 189 189 190 188 188 187 189 193 194 195 197 204 203 195 189 185 175 172 168 162 158 154 152 149
180 181 188 187 192 197 199 196 189 184 182 189 197 199 197 204 203 200 196 196 195 195 195 191 192 190 194 192 200 207 211 205 203 192 183 178 168 165 160 157 154 153 150
161 184 196 198 199 199 199 195 193 189 191 198 201 195 199 203 204 204 203 200 200 201 198 194 195 191 188 191 196 196 195 192 187 182 181 177 168 163 159 158 155 153 152
192 210 206 202 205 202 197 198 197 197 198 205 206 205 206 208 208 207 205 206 202 203 194 196 197 194 188 184 186 187 181 175 175 177 178 172 169 161 159 157 156 155 153
244 216 211 206 208 205 198 199 201 202 206 211 212 210 210 213 212 206 201 203 205 202 199 196 199 195 188 184 182 181 178 176 172 173 171 170 169 162 161 157 153 152 150
253 234 219 214 209 204 199 202 204 205 212 217 218 215 215 218 216 209 205 205 204 199 199 197 198 201 199 193 185 182 180 178 173 173 173 171 172 168 163 156 153 149 147
225 226 217 217 208 203 197 202 205 210 216 220 221 216 217 219 218 216 213 212 199 194 193 190 196 205 199 195 186 179 185 184 181 177 178 179 178 168 163 160 157 152 146
233 231 223 220 212 199 201 200 202 209 216 218 219 217 217 219 219 219 215 213 210 206 207 211 215 213 203 195 190 187 192 185 182 192 187 187 182 173 164 158 153 151 147
230 234 232 229 229 212 205 204 212 218 217 215 217 217 218 219 220 222 222 219 216 215 215 219 216 213 208 207 206 200 194 186 186 199 196 191 187 175 161 152 147 142 141
230 229 230 240 242 230 218 215 222 228 224 218 218 219 220 223 223 226 227 228 220 215 217 214 202 206 198 194 191 189 195 183 188 201 200 194 180 152 157 151 153 146 148
225 228 231 237 242 238 228 223 227 229 229 219 219 224 223 226 224 225 226 225 227 217 212 207 201 200 202 206 197 191 193 183 183 186 171 175 186 165 178 168 162 168 170
199 212 220 235 238 243 243 232 229 227 227 221 223 227 227 229 227 226 227 224 222 216 210 206 204 208 208 195 202 200 191 182 172 172 145 155 163 163 159 162 163 168 166
217 212 214 214 240 245 238 237 232 231 229 221 223 229 227 225 226 224 223 219 218 212 208 201 197 200 196 194 201 199 188 176 164 146 138 148 159 157 158 159 159 160 164
226 214 215 218 228 238 239 233 231 234 240 212 216 218 217 227 228 218 215 217 211 211 203 203 197 195 192 194 182 174 169 164 165 146 130 144 154 163 164 166 162 164 173
355 243 218 216 216 224 219 228 228 233 241 215 214 220 228 232 219 220 223 212 199 201 202 201 197 183 182 185 172 166 167 153 158 149 142 139 143 150 156 162 167 175 187
0 356 212 209 218 219 221 211 224 234 234 219 224 226 230 219 209 225 211 209 206 204 193 177 191 167 163 162 160 161 157 153 151 150 144 145 143 141 130 145 160 169 161
5 4 13 150 200 216 210 217 214 229 230 225 230 230 218 211 209 217 197 205 199 193 189 189 174 185 168 164 157 158 156 154 155 149 145 146 153 154 148 137 135 135 134
1 8 13 32 66 215 225 206 215 228 219 230 234 217 209 203 204 206 199 202 188 186 177 177 176 170 168 162 153 148 143 143 142 143 145 145 145 146 155 151 149 142 135
9 2 13 16 51 167 201 196 201 198 214 229 227 213 203 200 206 206 199 195 187 186 186 189 185 183 169 164 152 136 132 132 135 137 138 139 142 152 155 154 152 147 139
9 8 1 9 30 18 114 186 203 200 207 229 230 214 203 206 207 214 206 186 188 193 189 188 187 173 167 163 156 144 124 129 140 140 142 151 155 154 151 152 156 156 154
7 7 6 1 7 29 335 293 225 196 201 210 213 215 209 206 207 214 209 196 192 188 187 190 190 188 175 167 158 157 139 156 143 142 150 158 162 160 155 157 161 162 160
6 4 5 5 356 10 349 33 63 193 193 201 216 218 213 209 209 215 218 208 211 196 203 196 197 192 184 171 168 171 177 173 155 155 160 166 172 177 175 173 177 178 175
7 5 3 4 3 359 9 5 321 257 260 200 210 213 217 217 216 219 217 214 211 204 205 208 186 192 182 180 186 190 188 178 179 167 166 171 171 180 190 195 192 194 194
8 5 5 7 7 5 359 357 338 317 283 200 206 218 213 219 222 220 217 216 207 209 210 197 191 188 194 201 201 200 199 184 186 181 171 173 179 183 194 200 199 199 201
Height
1476 1479 1482 1484 1487 1489 1492 1493 1495 1496 1499 1500 1501 1503 1505 1506 1508 1509 1510 1511 1512 1513 1515 1516 1517 1518 1520 1521 1522 1523 1525 1527 1528 1529 1530 1532 1533 1535 1537 1539 1540 1542 1544
1476 1478 1481 1483 1486 1489 1491 1493 1494 1496 1498 1499 1500 1502 1503 1505 1507 1509 1510 1511 1511 1513 1514 1516 1517 1518 1519 1520 1522 1524 1525 1527 1529 1530 1530 1533 1535 1535 1538 1540 1542 1543 1545
1477 1478 1480 1483 1485 1488 1489 1491 1493 1494 1497 1499 1500 1501 1503 1504 1506 1507 1509 1510 1511 1512 1514 1515 1517 1518 1520 1520 1522 1524 1525 1527 1529 1530 1531 1533 1535 1537 1539 1541 1543 1546 1547
1476 1479 1480 1481 1484 1486 1488 1489 1491 1493 1496 1497 1499 1500 1502 1503 1504 1506 1507 1508 1510 1512 1513 1515 1516 1517 1519 1520 1522 1523 1525 1527 1529 1530 1532 1534 1536 1539 1541 1543 1545 1547 1549
1476 1478 1479 1480 1482 1484 1486 1487 1490 1492 1494 1496 1497 1499 1501 1502 1503 1504 1506 1508 1510 1511 1513 1514 1515 1517 1519 1520 1521 1523 1524 1526 1528 1530 1533 1536 1538 1540 1543 1545 1547 1549 1551
1475 1477 1478 1479 1480 1482 1484 1485 1487 1490 1492 1493 1495 1497 1499 1500 1502 1503 1504 1507 1508 1510 1511 1513 1515 1516 1518 1519 1521 1523 1525 1526 1528 1531 1534 1537 1540 1542 1544 1546 1548 1550 1551
1474 1475 1476 1477 1478 1480 1482 1484 1485 1488 1490 1492 1493 1496 1498 1499 1500 1502 1503 1505 1507 1509 1511 1512 1514 1516 1518 1519 1521 1523 1525 1527 1529 1533 1536 1539 1542 1543 1546 1548 1550 1551 1553
1471 1472 1474 1475 1477 1478 1480 1482 1484 1486 1488 1490 1491 1494 1496 1497 1498 1500 1502 1504 1506 1508 1509 1511 1513 1515 1517 1519 1520 1523 1524 1527 1530 1534 1537 1540 1542 1544 1547 1548 1551 1552 1555
1469 1470 1471 1473 1474 1476 1478 1480 1482 1484 1486 1488 1490 1491 1493 1495 1497 1498 1500 1502 1504 1506 1508 1510 1511 1513 1516 1518 1519 1521 1523 1526 1530 1534 1537 1538 1540 1544 1546 1549 1551 1554 1556
1468 1469 1469 1471 1473 1475 1477 1478 1480 1482 1483 1486 1488 1489 1491 1493 1495 1496 1499 1500 1503 1505 1507 1508 1510 1513 1515 1517 1518 1520 1523 1526 1529 1533 1535 1537 1540 1542 1545 1548 1552 1554 1557
1467 1468 1469 1471 1471 1473 1476 1478 1479 1481 1481 1483 1485 1487 1488 1490 1492 1494 1496 1498 1500 1502 1504 1506 1507 1511 1512 1513 1516 1519 1523 1525 1528 1531 1533 1537 1539 1540 1542 1546 1550 1553 1556
1467 1468 1469 1471 1471 1472 1474 1475 1477 1479 1479 1480 1482 1483 1485 1487 1489 1491 1493 1495 1497 1500 1502 1503 1505 1509 1511 1512 1514 1519 1522 1523 1526 1530 1532 1535 1537 1513 1536 1546 1550 1552 1556
1468 1469 1468 1468 1470 1470 1472 1473 1474 1476 1477 1478 1479 1481 1483 1484 1486 1487 1489 1490 1493 1497 1499 1501 1501 1506 1509 1511 1514 1517 1521 1523 1526 1529 1529 1526 1535 1538 1542 1545 1549 1553 1558
1463 1464 1466 1470 1469 1469 1470 1471 1472 1472 1473 1475 1476 1478 1480 1482 1483 1484 1486 1487 1489 1492 1495 1497 1498 1503 1507 1510 1514 1516 1520 1523 1526 1529 1530 1531 1539 1541 1546 1549 1553 1558 1562
1458 1459 1462 1463 1467 1468 1468 1469 1470 1470 1471 1472 1473 1474 1477 1478 1479 1480 1482 1483 1485 1488 1491 1493 1498 1499 1504 1508 1512 1515 1518 1522 1527 1529 1520 1532 1538 1543 1548 1552 1555 1558 1563
1453 1454 1456 1458 1461 1463 1465 1464 1465 1468 1468 1470 1471 1473 1474 1475 1476 1477 1479 1480 1482 1485 1489 1491 1495 1498 1503 1508 1511 1513 1518 1520 1526 1531 1526 1531 1540 1545 1549 1552 1555 1558 1562
1453 1450 1452 1454 1456 1457 1459 1460 1462 1464 1466 1468 1469 1469 1472 1473 1474 1474 1476 1477 1479 1483 1487 1488 1492 1496 1501 1506 1510 1513 1517 1519 1526 1527 1530 1534 1540 1545 1550 1553 1556 1559 1562
1452 1449 1448 1448 1451 1453 1455 1456 1458 1461 1463 1465 1467 1467 1469 1470 1472 1473 1473 1477 1477 1480 1481 1482 1485 1491 1496 1500 1504 1510 1516 1520 1523 1529 1531 1534 1539 1545 1551 1554 1555 1558 1562
1453 1447 1445 1443 1444 1449 1449 1452 1452 1457 1459 1462 1463 1464 1466 1469 1470 1471 1472 1475 1476 1478 1481 1483 1486 1491 1494 1497 1503 1509 1515 1520 1526 1530 1532 1536 1541 1544 1550 1555 1556 1560 1563
1455 1448 1443 1441 1439 1441 1444 1445 1450 1452 1455 1459 1460 1461 1464 1466 1470 1470 1472 1473 1475 1477 1479 1483 1486 1491 1497 1500 1502 1510 1517 1522 1523 1532 1532 1540 1545 1547 1553 1554 1555 1561 1565
1455 1449 1443 1440 1437 1438 1439 1441 1445 1445 1449 1453 1457 1460 1462 1465 1467 1469 1471 1472 1473 1475 1478 1482 1485 1490 1495 1499 1502 1513 1520 1523 1530 1534 1537 1540 1545 1551 1554 1556 1559 1562 1565
1454 1449 1445 1440 1436 1436 1437 1438 1439 1439 1445 1450 1454 1457 1459 1463 1465 1467 1469 1470 1471 1474 1480 1483 1485 1489 1495 1498 1501 1509 1519 1529 1534 1536 1538 1545 1549 1552 1553 1556 1561 1563 1565
1456 1450 1445 1442 1438 1434 1435 1435 1435 1436 1441 1443 1449 1454 1455 1459 1463 1466 1467 1467 1468 1473 1477 1480 1483 1486 1489 1495 1498 1501 1515 1523 1530 1535 1540 1545 1549 1552 1553 1557 1560 1563 1566
1458 1453 1447 1442 1436 1432 1433 1428 1428 1432 1435 1438 1444 1448 1452 1455 1460 1464 1466 1467 1473 1472 1475 1480 1483 1485 1487 1492 1498 1504 1505 1507 1513 1532 1539 1543 1547 1550 1553 1556 1559 1563 1566
1462 1454 1448 1441 1435 1432 1429 1427 1429 1427 1431 1430 1436 1442 1448 1452 1456 1460 1463 1465 1467 1472 1475 1479 1479 1483 1487 1489 1493 1498 1504 1510 1515 1520 1530 1538 1542 1548 1553 1556 1559 1562 1565
1463 1457 1451 1445 1441 1431 1428 1422 1426 1424 1426 1424 1430 1435 1441 1447 1450 1454 1458 1462 1464 1468 1472 1476 1479 1482 1485 1489 1493 1496 1499 1501 1509 1515 1526 1536 1540 1545 1551 1555 1558 1561 1563